{"data":{"norad_id":62249,"epoch":"2026-09-22T21:13:02.594784Z","epoch_age_seconds":103771,"freshness":"FRESH","line1":"1 62249U 24232N   26265.88405781  .00000099  00000+0  13380-3 0  9993","line2":"2 62249  89.0167  12.7161 0019059 100.3427 259.9874 13.51023857137612","mean_motion":13.51023857,"eccentricity":0.0019059,"inclination_deg":89.0167,"raan_deg":12.7161,"arg_perigee_deg":100.3427,"mean_anomaly_deg":259.9874,"bstar":0.0001338,"rev_number":13761,"period_min":106.58583063052,"perigee_km":1054.3013860647,"apogee_km":1082.6864538053,"semimajor_km":7446.630919935,"source":"CELESTRAK","updated_at":"2026-09-23T09:00:21.336050Z"}}